TimeWET,TemperatureF,Dew PointF,Humidity,Sea Level PressureIn,VisibilityMPH,Wind Direction,Wind SpeedMPH,Gust SpeedMPH,PrecipitationIn,Events,Conditions,WindDirDegrees,DateUTC
12:00 AM,55,52,88,30.22,3,Calm,Calm,,,,Scattered Clouds,,2013-11-09 00:00:00
12:00 AM,55.4,51.8,88,30.21,3.1,Calm,Calm,-,N/A,,Partly Cloudy,0,2013-11-09 00:00:00
12:30 AM,55.4,53.6,94,30.21,3.1,Calm,Calm,-,N/A,,Partly Cloudy,0,2013-11-09 00:30:00
1:00 AM,53.6,51.8,94,30.18,3.1,Calm,Calm,-,N/A,,Partly Cloudy,0,2013-11-09 01:00:00
1:30 AM,57.2,55.4,94,30.18,3.1,Calm,Calm,-,N/A,,Partly Cloudy,0,2013-11-09 01:30:00
2:00 AM,57.2,55.4,94,30.18,3.1,Calm,Calm,-,N/A,,Partly Cloudy,0,2013-11-09 02:00:00
2:30 AM,55.4,53.6,94,30.18,3.1,Calm,Calm,-,N/A,,Partly Cloudy,0,2013-11-09 02:30:00
3:00 AM,56,54,92,30.20,3,Calm,Calm,,,,Scattered Clouds,,2013-11-09 03:00:00
3:00 AM,57.2,53.6,88,30.18,3.1,Calm,Calm,-,N/A,,Partly Cloudy,0,2013-11-09 03:00:00
3:30 AM,57.2,55.4,94,30.18,3.1,Calm,Calm,-,N/A,,Partly Cloudy,0,2013-11-09 03:30:00
4:00 AM,55.4,53.6,94,30.18,3.1,Calm,Calm,-,N/A,,Partly Cloudy,0,2013-11-09 04:00:00
4:30 AM,55.4,53.6,94,30.18,3.1,Calm,Calm,-,N/A,,Partly Cloudy,0,2013-11-09 04:30:00
5:00 AM,57.2,55.4,94,30.18,3.1,Calm,Calm,-,N/A,,Partly Cloudy,0,2013-11-09 05:00:00
5:30 AM,57.2,55.4,94,30.21,3.1,SE,3.5,-,N/A,,Partly Cloudy,140,2013-11-09 05:30:00
6:00 AM,56,54,93,30.22,3,Calm,Calm,,,,Scattered Clouds,,2013-11-09 06:00:00
6:00 AM,57.2,53.6,88,30.21,3.1,Calm,Calm,-,N/A,,Partly Cloudy,0,2013-11-09 06:00:00
6:30 AM,57.2,55.4,94,30.21,3.1,Calm,Calm,-,N/A,,Partly Cloudy,0,2013-11-09 06:30:00
7:00 AM,57.2,55.4,94,30.21,3.1,Calm,Calm,-,N/A,,Partly Cloudy,0,2013-11-09 07:00:00
7:24 AM,59.0,57.2,94,30.24,1.9,Calm,Calm,-,N/A,Rain,Light Rain,0,2013-11-09 07:24:00
7:30 AM,59.0,57.2,94,30.24,1.9,Calm,Calm,-,N/A,Rain,Light Rain,0,2013-11-09 07:30:00
8:00 AM,59.0,57.2,94,30.24,1.9,Calm,Calm,-,N/A,Rain,Light Rain,0,2013-11-09 08:00:00
8:08 AM,59.0,57.2,94,30.24,1.9,Calm,Calm,-,N/A,Rain,Light Rain,0,2013-11-09 08:08:00
8:30 AM,60.8,59.0,94,30.24,1.9,Calm,Calm,-,N/A,Rain,Light Rain,0,2013-11-09 08:30:00
9:00 AM,61,59,92,30.27,3,Calm,Calm,,,Rain,Light Rain,,2013-11-09 09:00:00
9:00 AM,60.8,59.0,94,30.24,3.1,Calm,Calm,-,N/A,,Mostly Cloudy,0,2013-11-09 09:00:00
9:30 AM,62.6,59.0,88,30.27,3.1,Calm,Calm,-,N/A,,Mostly Cloudy,0,2013-11-09 09:30:00
10:00 AM,64.4,60.8,88,30.27,3.1,Calm,Calm,-,N/A,,Mostly Cloudy,0,2013-11-09 10:00:00
10:30 AM,68.0,59.0,73,30.27,4.3,NE,6.9,-,N/A,,Mostly Cloudy,50,2013-11-09 10:30:00
11:00 AM,68.0,57.2,68,30.27,4.3,NNE,8.1,-,N/A,,Mostly Cloudy,30,2013-11-09 11:00:00
11:30 AM,68.0,57.2,68,30.27,4.3,North,11.5,-,N/A,,Mostly Cloudy,360,2013-11-09 11:30:00
12:00 PM,67,56,58,30.27,4,North,12.7,,,,Mostly Cloudy,0,2013-11-09 12:00:00
12:00 PM,66.2,55.4,68,30.27,4.3,North,12.7,-,N/A,,Mostly Cloudy,360,2013-11-09 12:00:00
12:30 PM,68.0,55.4,64,30.24,4.3,North,12.7,-,N/A,,Mostly Cloudy,360,2013-11-09 12:30:00
1:00 PM,69.8,53.6,56,30.24,5.0,North,11.5,-,N/A,,Mostly Cloudy,360,2013-11-09 13:00:00
1:30 PM,69.8,53.6,56,30.24,5.0,North,12.7,-,N/A,,Mostly Cloudy,360,2013-11-09 13:30:00
2:00 PM,68.0,53.6,60,30.24,5.0,North,12.7,-,N/A,,Mostly Cloudy,350,2013-11-09 14:00:00
2:30 PM,68.0,53.6,60,30.24,5.0,North,12.7,-,N/A,,Scattered Clouds,360,2013-11-09 14:30:00
3:00 PM,68.0,53.6,60,30.24,5.0,North,15.0,-,N/A,,Scattered Clouds,360,2013-11-09 15:00:00
3:30 PM,66.2,51.8,60,30.24,5.0,North,15.0,-,N/A,,Scattered Clouds,10,2013-11-09 15:30:00
4:00 PM,66.2,51.8,60,30.24,5.0,North,13.8,-,N/A,,Scattered Clouds,360,2013-11-09 16:00:00
4:30 PM,64.4,51.8,64,30.24,5.0,North,12.7,-,N/A,,Scattered Clouds,10,2013-11-09 16:30:00
5:00 PM,62.6,51.8,68,30.24,5.0,NNE,13.8,-,N/A,,Scattered Clouds,30,2013-11-09 17:00:00
5:30 PM,62.6,51.8,68,30.27,5.0,NNE,9.2,-,N/A,,Scattered Clouds,30,2013-11-09 17:30:00
6:00 PM,60,52,66,30.29,5,NNE,6.9,,,,Partly Cloudy,30,2013-11-09 18:00:00
6:00 PM,59.0,51.8,77,30.27,5.0,NNE,6.9,-,N/A,,Scattered Clouds,30,2013-11-09 18:00:00
6:30 PM,59.0,51.8,77,30.27,3.7,NE,4.6,-,N/A,,Partly Cloudy,50,2013-11-09 18:30:00
7:00 PM,57.2,51.8,82,30.27,3.7,Calm,Calm,-,N/A,,Partly Cloudy,0,2013-11-09 19:00:00
7:30 PM,57.2,50.0,77,30.30,3.7,Calm,Calm,-,N/A,,Partly Cloudy,0,2013-11-09 19:30:00
8:00 PM,55.4,50.0,82,30.30,3.7,Calm,Calm,-,N/A,,Partly Cloudy,0,2013-11-09 20:00:00
8:30 PM,55.4,50.0,82,30.30,3.7,East,1.2,-,N/A,,Partly Cloudy,90,2013-11-09 20:30:00
9:00 PM,55,49,73,30.31,4,Calm,Calm,,,,Scattered Clouds,,2013-11-09 21:00:00
9:00 PM,55.4,48.2,77,30.30,3.7,Calm,Calm,-,N/A,,Partly Cloudy,0,2013-11-09 21:00:00
9:30 PM,53.6,46.4,77,30.30,3.7,Calm,Calm,-,N/A,,Partly Cloudy,0,2013-11-09 21:30:00
10:00 PM,51.8,46.4,82,30.30,3.7,Calm,Calm,-,N/A,,Partly Cloudy,0,2013-11-09 22:00:00
10:30 PM,50.0,44.6,82,30.30,3.7,Calm,Calm,-,N/A,,Partly Cloudy,0,2013-11-09 22:30:00
11:00 PM,50.0,46.4,87,30.30,3.7,Calm,Calm,-,N/A,,Partly Cloudy,0,2013-11-09 23:00:00
11:30 PM,51.8,46.4,82,30.30,3.7,Calm,Calm,-,N/A,,Partly Cloudy,0,2013-11-09 23:30:00